Time,TemperatureF,DewpointF,PressureIn,WindDirection,WindDirectionDegrees,WindSpeedMPH,WindSpeedGustMPH,Humidity,HourlyPrecipIn,Conditions,Clouds,dailyrainin,SoftwareType,DateUTC
2013-09-16 00:01:00,76.2,75.3,29.99,ENE,71,3.5,3.5,97,0.00,RA,,0.00,WeatherDisplay:10.37,2013-09-16 04:01:00,
2013-09-16 00:02:00,76.2,75.3,29.99,ENE,74,3.5,3.5,97,0.00,RA,,0.00,WeatherDisplay:10.37,2013-09-16 04:02:00,
2013-09-16 00:07:00,76.3,75.4,30.00,ENE,66,3.5,3.5,97,0.00,RA,,0.00,WeatherDisplay:10.37,2013-09-16 04:07:00,
2013-09-16 00:12:00,76.4,75.5,30.00,ENE,62,3.5,3.5,97,0.00,CLR,,0.00,WeatherDisplay:10.37,2013-09-16 04:12:00,
2013-09-16 00:17:00,76.4,75.5,30.00,ENE,59,3.5,3.5,97,0.00,CLR,,0.00,WeatherDisplay:10.37,2013-09-16 04:17:00,
2013-09-16 00:22:00,76.5,75.6,30.00,ENE,57,2.3,2.3,97,0.00,CLR,,0.00,WeatherDisplay:10.37,2013-09-16 04:22:00,
2013-09-16 00:27:00,76.5,75.6,29.99,NE,51,3.5,3.5,97,0.00,CLR,,0.00,WeatherDisplay:10.37,2013-09-16 04:27:00,
2013-09-16 00:32:00,76.6,75.4,29.99,ENE,64,3.5,3.5,96,0.00,CLR,,0.00,WeatherDisplay:10.37,2013-09-16 04:32:00,
2013-09-16 00:37:00,76.8,75.6,29.99,ENE,67,5.8,5.8,96,0.00,CLR,,0.00,WeatherDisplay:10.37,2013-09-16 04:37:00,
2013-09-16 00:42:00,77.1,75.6,29.99,NE,53,6.0,6.0,95,0.00,CLR,,0.00,WeatherDisplay:10.37,2013-09-16 04:42:00,
2013-09-16 00:47:00,77.3,75.4,29.99,East,81,6.0,6.0,94,0.00,CLR,,0.00,WeatherDisplay:10.37,2013-09-16 04:47:00,
2013-09-16 00:52:00,77.5,75.6,29.99,ENE,74,6.9,6.9,94,0.00,CLR,,0.00,WeatherDisplay:10.37,2013-09-16 04:52:00,
2013-09-16 00:57:00,77.7,75.5,29.99,ENE,76,6.9,6.9,93,0.00,CLR,,0.00,WeatherDisplay:10.37,2013-09-16 04:57:00,
2013-09-16 01:02:00,77.9,75.7,29.99,ENE,67,5.8,5.8,93,0.00,CLR,,0.00,WeatherDisplay:10.37,2013-09-16 05:02:00,
2013-09-16 01:07:00,77.9,75.7,29.99,ENE,62,4.6,4.6,93,0.00,CLR,,0.00,WeatherDisplay:10.37,2013-09-16 05:07:00,
2013-09-16 01:12:00,78.0,75.8,29.99,ENE,66,4.6,4.6,93,0.00,CLR,,0.00,WeatherDisplay:10.37,2013-09-16 05:12:00,
2013-09-16 01:17:00,78.1,75.9,29.99,ENE,62,3.5,3.5,93,0.00,CLR,,0.00,WeatherDisplay:10.37,2013-09-16 05:17:00,
2013-09-16 01:22:00,78.2,76.0,29.99,ENE,74,4.6,4.6,93,0.00,CLR,,0.00,WeatherDisplay:10.37,2013-09-16 05:22:00,
2013-09-16 01:27:00,78.3,76.1,29.99,ENE,74,2.3,2.3,93,0.00,CLR,,0.00,WeatherDisplay:10.37,2013-09-16 05:27:00,
2013-09-16 01:32:00,78.3,76.1,29.98,ENE,64,3.5,3.5,93,0.00,CLR,,0.00,WeatherDisplay:10.37,2013-09-16 05:32:00,
2013-09-16 01:37:00,78.3,76.1,29.98,ENE,69,6.0,6.0,93,0.00,CLR,,0.00,WeatherDisplay:10.37,2013-09-16 05:37:00,
2013-09-16 01:42:00,78.5,76.3,29.98,ENE,72,6.9,6.9,93,0.00,CLR,,0.00,WeatherDisplay:10.37,2013-09-16 05:42:00,
2013-09-16 01:47:00,78.7,76.2,29.98,ENE,77,3.5,3.5,92,0.00,CLR,,0.00,WeatherDisplay:10.37,2013-09-16 05:47:00,
2013-09-16 01:52:00,78.8,76.3,29.98,ENE,59,9.2,9.2,92,0.00,CLR,,0.00,WeatherDisplay:10.37,2013-09-16 05:52:00,
2013-09-16 01:57:00,79.0,76.5,29.97,ENE,59,9.2,9.2,92,0.00,CLR,,0.00,WeatherDisplay:10.37,2013-09-16 05:57:00,
2013-09-16 02:02:00,79.2,77.0,29.98,NE,44,8.1,8.1,93,0.00,CLR,,0.00,WeatherDisplay:10.37,2013-09-16 06:02:00,
2013-09-16 02:07:00,79.4,77.2,29.97,ENE,67,3.5,3.5,93,0.00,CLR,,0.00,WeatherDisplay:10.37,2013-09-16 06:07:00,
2013-09-16 02:12:00,79.4,76.9,29.98,East,92,5.8,5.8,92,0.00,CLR,,0.00,WeatherDisplay:10.37,2013-09-16 06:12:00,
2013-09-16 02:17:00,79.6,77.1,29.98,ENE,76,5.8,5.8,92,0.00,CLR,,0.00,WeatherDisplay:10.37,2013-09-16 06:17:00,
2013-09-16 02:22:00,79.6,77.1,29.98,East,84,3.5,3.5,92,0.00,CLR,,0.00,WeatherDisplay:10.37,2013-09-16 06:22:00,
2013-09-16 02:27:00,79.6,77.1,29.97,ENE,76,3.5,3.5,92,0.00,CLR,,0.00,WeatherDisplay:10.37,2013-09-16 06:27:00,
2013-09-16 02:32:00,79.7,77.2,29.97,ENE,71,6.9,6.9,92,0.00,CLR,,0.00,WeatherDisplay:10.37,2013-09-16 06:32:00,
2013-09-16 02:37:00,79.8,76.9,29.97,ENE,67,4.6,4.6,91,0.00,CLR,,0.00,WeatherDisplay:10.37,2013-09-16 06:37:00,
2013-09-16 02:42:00,79.7,76.8,29.97,ENE,71,3.5,3.5,91,0.00,CLR,,0.00,WeatherDisplay:10.37,2013-09-16 06:42:00,
2013-09-16 02:47:00,79.7,76.5,29.97,ENE,61,4.6,4.6,90,0.00,CLR,,0.00,WeatherDisplay:10.37,2013-09-16 06:47:00,
2013-09-16 02:52:00,79.6,76.4,29.97,NE,54,4.0,4.0,90,0.00,CLR,,0.00,WeatherDisplay:10.37,2013-09-16 06:52:00,
2013-09-16 02:57:00,79.5,76.3,29.97,ENE,76,4.6,4.6,90,0.00,CLR,,0.00,WeatherDisplay:10.37,2013-09-16 06:57:00,
2013-09-16 03:02:00,79.4,76.2,29.97,East,95,3.5,3.5,90,0.00,CLR,,0.00,WeatherDisplay:10.37,2013-09-16 07:02:00,
2013-09-16 03:07:00,79.4,76.2,29.97,East,86,4.6,4.6,90,0.00,CLR,,0.00,WeatherDisplay:10.37,2013-09-16 07:07:00,
2013-09-16 03:12:00,79.5,76.3,29.97,ENE,71,9.2,9.2,90,0.00,CLR,,0.00,WeatherDisplay:10.37,2013-09-16 07:12:00,
2013-09-16 03:17:00,79.5,76.3,29.97,ENE,71,4.6,4.6,90,0.00,CLR,,0.00,WeatherDisplay:10.37,2013-09-16 07:17:00,
2013-09-16 03:22:00,79.6,76.4,29.96,ENE,78,4.0,4.0,90,0.00,CLR,,0.00,WeatherDisplay:10.37,2013-09-16 07:22:00,
2013-09-16 03:27:00,79.6,76.4,29.96,ENE,63,3.5,3.5,90,0.00,CLR,,0.00,WeatherDisplay:10.37,2013-09-16 07:27:00,
2013-09-16 03:32:00,79.6,76.4,29.96,East,90,4.6,4.6,90,0.00,CLR,,0.00,WeatherDisplay:10.37,2013-09-16 07:32:00,
2013-09-16 03:37:00,79.8,76.6,29.96,East,88,4.6,4.6,90,0.00,CLR,,0.00,WeatherDisplay:10.37,2013-09-16 07:37:00,
2013-09-16 03:42:00,79.8,76.6,29.96,East,80,5.8,5.8,90,0.00,CLR,,0.00,WeatherDisplay:10.37,2013-09-16 07:42:00,
2013-09-16 03:47:00,80.0,76.8,29.97,ENE,76,4.6,4.6,90,0.00,CLR,,0.00,WeatherDisplay:10.37,2013-09-16 07:47:00,
2013-09-16 03:52:00,80.1,76.9,29.96,ENE,71,5.0,5.0,90,0.00,CLR,,0.00,WeatherDisplay:10.37,2013-09-16 07:52:00,
2013-09-16 03:57:00,80.1,76.9,29.97,East,90,5.8,5.8,90,0.00,CLR,,0.00,WeatherDisplay:10.37,2013-09-16 07:57:00,
2013-09-16 04:02:00,80.2,77.0,29.97,ENE,74,5.8,5.8,90,0.00,CLR,,0.00,WeatherDisplay:10.37,2013-09-16 08:02:00,
2013-09-16 04:07:00,80.2,77.0,29.97,East,81,4.6,4.6,90,0.00,CLR,,0.00,WeatherDisplay:10.37,2013-09-16 08:07:00,
2013-09-16 04:12:00,80.2,77.0,29.96,ENE,76,7.0,7.0,90,0.00,CLR,,0.00,WeatherDisplay:10.37,2013-09-16 08:12:00,
2013-09-16 04:17:00,80.2,77.0,29.97,East,86,3.5,3.5,90,0.00,CLR,,0.00,WeatherDisplay:10.37,2013-09-16 08:17:00,
2013-09-16 04:22:00,80.2,77.0,29.97,ENE,69,9.2,9.2,90,0.00,CLR,,0.00,WeatherDisplay:10.37,2013-09-16 08:22:00,
2013-09-16 04:27:00,80.3,76.8,29.96,NE,55,6.9,6.9,89,0.00,CLR,,0.00,WeatherDisplay:10.37,2013-09-16 08:27:00,
2013-09-16 04:32:00,80.3,76.8,29.96,ENE,73,6.0,6.0,89,0.00,CLR,,0.00,WeatherDisplay:10.37,2013-09-16 08:32:00,
2013-09-16 04:37:00,80.3,77.1,29.96,ENE,78,4.6,4.6,90,0.00,CLR,,0.00,WeatherDisplay:10.37,2013-09-16 08:37:00,
2013-09-16 04:42:00,80.2,77.0,29.96,East,83,5.8,5.8,90,0.00,CLR,,0.00,WeatherDisplay:10.37,2013-09-16 08:42:00,
2013-09-16 04:47:00,80.2,77.0,29.96,East,88,5.8,5.8,90,0.00,CLR,,0.00,WeatherDisplay:10.37,2013-09-16 08:47:00,
2013-09-16 04:52:00,80.2,77.0,29.96,East,97,8.1,8.1,90,0.00,CLR,,0.00,WeatherDisplay:10.37,2013-09-16 08:52:00,
2013-09-16 04:57:00,80.2,76.7,29.96,East,100,6.9,6.9,89,0.00,CLR,,0.00,WeatherDisplay:10.37,2013-09-16 08:57:00,
2013-09-16 05:02:00,80.3,76.8,29.96,ENE,78,5.8,5.8,89,0.00,CLR,,0.00,WeatherDisplay:10.37,2013-09-16 09:02:00,
2013-09-16 05:07:00,80.3,76.8,29.96,ENE,75,9.0,9.0,89,0.00,CLR,,0.00,WeatherDisplay:10.37,2013-09-16 09:07:00,
2013-09-16 05:12:00,80.4,76.9,29.96,ENE,67,10.4,10.4,89,0.00,CLR,,0.00,WeatherDisplay:10.37,2013-09-16 09:12:00,
2013-09-16 05:17:00,80.5,77.0,29.96,ENE,69,6.9,6.9,89,0.00,CLR,,0.00,WeatherDisplay:10.37,2013-09-16 09:17:00,
2013-09-16 05:22:00,80.5,76.6,29.97,ENE,74,6.9,6.9,88,0.00,CLR,,0.00,WeatherDisplay:10.37,2013-09-16 09:22:00,
2013-09-16 05:27:00,80.5,77.0,29.97,East,97,9.2,9.2,89,0.00,CLR,,0.00,WeatherDisplay:10.37,2013-09-16 09:27:00,
2013-09-16 05:32:00,80.4,76.9,29.97,East,84,4.6,4.6,89,0.00,CLR,,0.00,WeatherDisplay:10.37,2013-09-16 09:32:00,
2013-09-16 05:37:00,80.5,76.6,29.97,East,90,6.9,6.9,88,0.00,CLR,,0.00,WeatherDisplay:10.37,2013-09-16 09:37:00,
2013-09-16 05:42:00,80.5,76.6,29.97,ENE,61,9.2,9.2,88,0.00,CLR,,0.00,WeatherDisplay:10.37,2013-09-16 09:42:00,
2013-09-16 05:47:00,80.5,76.6,29.97,East,84,5.8,5.8,88,0.00,CLR,,0.00,WeatherDisplay:10.37,2013-09-16 09:47:00,
2013-09-16 05:52:00,80.4,76.5,29.97,ENE,76,4.6,4.6,88,0.00,CLR,,0.00,WeatherDisplay:10.37,2013-09-16 09:52:00,
2013-09-16 05:57:00,80.5,76.6,29.97,East,96,5.0,5.0,88,0.00,CLR,,0.00,WeatherDisplay:10.37,2013-09-16 09:57:00,
2013-09-16 06:02:00,80.5,76.6,29.97,ENE,67,9.2,9.2,88,0.00,CLR,,0.00,WeatherDisplay:10.37,2013-09-16 10:02:00,
2013-09-16 06:07:00,80.5,76.6,29.97,ENE,68,5.8,5.8,88,0.00,CLR,,0.00,WeatherDisplay:10.37,2013-09-16 10:07:00,
2013-09-16 06:12:00,80.4,76.5,29.98,ENE,73,6.0,6.0,88,0.00,CLR,,0.00,WeatherDisplay:10.37,2013-09-16 10:12:00,
2013-09-16 06:17:00,80.4,76.5,29.98,ENE,66,4.0,4.0,88,0.00,CLR,,0.00,WeatherDisplay:10.37,2013-09-16 10:17:00,
2013-09-16 06:22:00,80.4,76.9,29.98,ENE,63,5.0,5.0,89,0.00,CLR,,0.00,WeatherDisplay:10.37,2013-09-16 10:22:00,
2013-09-16 06:27:00,80.5,77.0,29.98,ENE,73,4.0,4.0,89,0.00,CLR,,0.00,WeatherDisplay:10.37,2013-09-16 10:27:00,
2013-09-16 06:32:00,80.5,77.0,29.98,ENE,57,4.6,4.6,89,0.00,CLR,,0.00,WeatherDisplay:10.37,2013-09-16 10:32:00,
2013-09-16 06:37:00,80.5,77.0,29.97,East,80,6.9,6.9,89,0.00,CLR,,0.00,WeatherDisplay:10.37,2013-09-16 10:37:00,
2013-09-16 06:42:00,80.6,77.1,29.98,East,83,5.8,5.8,89,0.00,CLR,,0.00,WeatherDisplay:10.37,2013-09-16 10:42:00,
2013-09-16 06:47:00,80.6,77.1,29.97,ESE,107,4.6,4.6,89,0.00,CLR,,0.00,WeatherDisplay:10.37,2013-09-16 10:47:00,
2013-09-16 06:52:00,80.7,77.2,29.97,ESE,111,9.2,9.2,89,0.00,CLR,,0.00,WeatherDisplay:10.37,2013-09-16 10:52:00,
2013-09-16 06:57:00,80.8,76.9,29.97,ENE,63,9.2,9.2,88,0.00,CLR,,0.00,WeatherDisplay:10.37,2013-09-16 10:57:00,
2013-09-16 07:02:00,80.8,76.9,29.97,East,82,9.2,9.2,88,0.00,CLR,,0.00,WeatherDisplay:10.37,2013-09-16 11:02:00,
2013-09-16 07:07:00,80.8,76.9,29.97,East,89,6.0,6.0,88,0.00,CLR,,0.00,WeatherDisplay:10.37,2013-09-16 11:07:00,
2013-09-16 07:12:00,80.7,76.8,29.97,East,84,10.4,10.4,88,0.00,CLR,,0.00,WeatherDisplay:10.37,2013-09-16 11:12:00,
2013-09-16 07:17:00,80.8,76.9,29.97,East,82,10.4,10.4,88,0.00,CLR,,0.00,WeatherDisplay:10.37,2013-09-16 11:17:00,
2013-09-16 07:22:00,80.7,76.5,29.97,ENE,68,9.2,9.2,87,0.00,CLR,,0.00,WeatherDisplay:10.37,2013-09-16 11:22:00,
2013-09-16 07:27:00,80.6,76.4,29.97,ENE,65,9.2,9.2,87,0.00,CLR,,0.00,WeatherDisplay:10.37,2013-09-16 11:27:00,
2013-09-16 07:32:00,80.6,76.0,29.96,NE,55,9.2,9.2,86,0.00,CLR,,0.00,WeatherDisplay:10.37,2013-09-16 11:32:00,
2013-09-16 07:37:00,80.7,75.8,29.97,ENE,67,6.9,6.9,85,0.00,CLR,,0.00,WeatherDisplay:10.37,2013-09-16 11:37:00,
2013-09-16 07:42:00,80.8,75.5,29.97,ENE,69,5.0,5.0,84,0.00,CLR,,0.00,WeatherDisplay:10.37,2013-09-16 11:42:00,
2013-09-16 07:47:00,81.1,75.8,29.97,ENE,63,9.2,9.2,84,0.00,CLR,,0.00,WeatherDisplay:10.37,2013-09-16 11:47:00,
2013-09-16 07:52:00,81.3,75.6,29.97,ENE,74,6.9,6.9,83,0.00,CLR,,0.00,WeatherDisplay:10.37,2013-09-16 11:52:00,
2013-09-16 07:57:00,81.2,75.9,29.97,ENE,65,11.5,11.5,84,0.00,CLR,,0.00,WeatherDisplay:10.37,2013-09-16 11:57:00,
2013-09-16 08:02:00,81.2,76.6,29.97,ENE,70,6.0,6.0,86,0.00,CLR,,0.00,WeatherDisplay:10.37,2013-09-16 12:02:00,
2013-09-16 08:07:00,81.2,77.3,29.97,NE,44,10.4,10.4,88,0.00,CLR,,0.00,WeatherDisplay:10.37,2013-09-16 12:07:00,
2013-09-16 08:12:00,81.5,77.6,29.97,East,86,10.4,10.4,88,0.00,CLR,,0.00,WeatherDisplay:10.37,2013-09-16 12:12:00,
2013-09-16 08:17:00,81.7,77.8,29.98,ENE,66,11.5,11.5,88,0.00,CLR,,0.00,WeatherDisplay:10.37,2013-09-16 12:17:00,
2013-09-16 08:22:00,81.9,77.3,29.98,ENE,78,10.4,10.4,86,0.00,CLR,,0.00,WeatherDisplay:10.37,2013-09-16 12:22:00,
2013-09-16 08:27:00,82.0,77.0,29.98,ENE,70,11.5,11.5,85,0.00,CLR,,0.00,WeatherDisplay:10.37,2013-09-16 12:27:00,
2013-09-16 08:32:00,82.0,77.4,29.98,East,98,9.2,9.2,86,0.00,CLR,,0.00,WeatherDisplay:10.37,2013-09-16 12:32:00,
2013-09-16 08:37:00,82.0,77.4,29.98,ENE,61,11.5,11.5,86,0.00,CLR,,0.00,WeatherDisplay:10.37,2013-09-16 12:37:00,
2013-09-16 08:42:00,82.0,77.4,29.98,ENE,60,11.5,11.5,86,0.00,CLR,,0.00,WeatherDisplay:10.37,2013-09-16 12:42:00,
2013-09-16 08:47:00,81.9,77.3,29.98,ENE,66,10.4,10.4,86,0.00,CLR,,0.00,WeatherDisplay:10.37,2013-09-16 12:47:00,
2013-09-16 08:52:00,82.0,77.4,29.99,ENE,67,11.5,11.5,86,0.00,CLR,,0.00,WeatherDisplay:10.37,2013-09-16 12:52:00,
2013-09-16 08:57:00,82.0,77.4,29.99,East,84,9.2,9.2,86,0.00,CLR,,0.00,WeatherDisplay:10.37,2013-09-16 12:57:00,
2013-09-16 09:02:00,82.2,77.2,29.99,East,98,11.5,11.5,85,0.00,CLR,,0.00,WeatherDisplay:10.37,2013-09-16 13:02:00,
2013-09-16 09:07:00,82.3,77.3,29.99,NE,52,10.4,10.4,85,0.00,CLR,,0.00,WeatherDisplay:10.37,2013-09-16 13:07:00,
2013-09-16 09:12:00,82.6,77.6,29.99,ENE,59,10.4,10.4,85,0.00,CLR,,0.00,WeatherDisplay:10.37,2013-09-16 13:12:00,
2013-09-16 09:17:00,82.8,77.5,29.99,ESE,112,10.4,10.4,84,0.00,CLR,,0.00,WeatherDisplay:10.37,2013-09-16 13:17:00,
2013-09-16 09:22:00,83.0,77.3,30.00,ESE,109,11.5,11.5,83,0.00,CLR,,0.00,WeatherDisplay:10.37,2013-09-16 13:22:00,
2013-09-16 09:27:00,83.0,77.7,30.00,ENE,71,11.5,11.5,84,0.00,CLR,,0.00,WeatherDisplay:10.37,2013-09-16 13:27:00,
2013-09-16 09:32:00,83.6,77.1,30.00,East,87,10.0,10.0,81,0.00,CLR,,0.00,WeatherDisplay:10.37,2013-09-16 13:32:00,
2013-09-16 09:37:00,83.8,75.4,30.00,East,79,11.5,11.5,76,0.00,CLR,,0.00,WeatherDisplay:10.37,2013-09-16 13:37:00,
2013-09-16 09:42:00,83.7,75.3,30.00,East,92,15.0,15.0,76,0.00,CLR,,0.00,WeatherDisplay:10.37,2013-09-16 13:42:00,
2013-09-16 09:47:00,83.9,75.9,30.00,ESE,105,12.7,12.7,77,0.00,CLR,,0.00,WeatherDisplay:10.37,2013-09-16 13:47:00,
2013-09-16 09:52:00,84.2,76.6,30.00,ENE,69,15.0,15.0,78,0.00,CLR,,0.00,WeatherDisplay:10.37,2013-09-16 13:52:00,
2013-09-16 09:57:00,83.9,77.1,30.00,ESE,119,17.3,17.3,80,0.00,CLR,,0.00,WeatherDisplay:10.37,2013-09-16 13:57:00,
2013-09-16 10:02:00,84.0,76.8,30.00,ESE,102,15.0,15.0,79,0.00,CLR,,0.00,WeatherDisplay:10.37,2013-09-16 14:02:00,
2013-09-16 10:07:00,84.5,76.9,30.00,ENE,77,13.8,13.8,78,0.00,CLR,,0.00,WeatherDisplay:10.37,2013-09-16 14:07:00,
2013-09-16 10:12:00,84.7,77.1,30.01,East,98,11.5,11.5,78,0.00,CLR,,0.00,WeatherDisplay:10.37,2013-09-16 14:12:00,
2013-09-16 10:17:00,84.5,76.5,30.00,SE,138,12.7,12.7,77,0.00,CLR,,0.00,WeatherDisplay:10.37,2013-09-16 14:17:00,
2013-09-16 10:22:00,84.3,76.7,30.00,ESE,107,15.0,15.0,78,0.00,CLR,,0.00,WeatherDisplay:10.37,2013-09-16 14:22:00,
2013-09-16 10:27:00,84.9,76.9,30.00,ESE,109,18.4,18.4,77,0.00,CLR,,0.00,WeatherDisplay:10.37,2013-09-16 14:27:00,
2013-09-16 10:32:00,84.8,76.4,30.00,East,88,15.0,15.0,76,0.00,CLR,,0.00,WeatherDisplay:10.37,2013-09-16 14:32:00,
2013-09-16 10:37:00,84.9,76.5,30.01,East,98,18.4,18.4,76,0.00,CLR,,0.00,WeatherDisplay:10.37,2013-09-16 14:37:00,
2013-09-16 10:42:00,84.8,76.4,30.01,ENE,59,12.7,12.7,76,0.00,CLR,,0.00,WeatherDisplay:10.37,2013-09-16 14:42:00,
2013-09-16 10:47:00,84.9,76.9,30.01,ESE,110,13.8,13.8,77,0.00,CLR,,0.00,WeatherDisplay:10.37,2013-09-16 14:47:00,
2013-09-16 10:52:00,85.2,76.8,30.01,ESE,117,12.7,12.7,76,0.00,CLR,,0.00,WeatherDisplay:10.37,2013-09-16 14:52:00,
2013-09-16 10:57:00,85.6,77.2,30.01,East,92,11.5,11.5,76,0.00,CLR,,0.00,WeatherDisplay:10.37,2013-09-16 14:57:00,
2013-09-16 11:02:00,86.1,77.2,30.01,East,86,11.0,11.0,75,0.00,CLR,,0.00,WeatherDisplay:10.37,2013-09-16 15:02:00,
2013-09-16 11:07:00,85.7,76.9,30.01,SE,130,11.5,11.5,75,0.00,CLR,,0.00,WeatherDisplay:10.37,2013-09-16 15:07:00,
2013-09-16 11:12:00,85.2,77.2,30.01,NE,45,6.9,6.9,77,0.00,CLR,,0.00,WeatherDisplay:10.37,2013-09-16 15:12:00,
2013-09-16 11:17:00,85.0,77.4,30.00,ENE,61,11.5,11.5,78,0.00,CLR,,0.00,WeatherDisplay:10.37,2013-09-16 15:17:00,
2013-09-16 11:22:00,84.5,77.3,30.00,ENE,58,12.7,12.7,79,0.00,CLR,,0.00,WeatherDisplay:10.37,2013-09-16 15:22:00,
2013-09-16 11:27:00,84.6,77.4,30.00,ESE,109,13.8,13.8,79,0.00,CLR,,0.00,WeatherDisplay:10.37,2013-09-16 15:27:00,
2013-09-16 11:32:00,83.9,75.9,30.01,ENE,71,13.8,13.8,77,0.00,CLR,,0.00,WeatherDisplay:10.37,2013-09-16 15:32:00,
2013-09-16 11:37:00,83.0,75.8,30.00,ENE,69,11.5,11.5,79,0.00,CLR,,0.00,WeatherDisplay:10.37,2013-09-16 15:37:00,
2013-09-16 11:42:00,80.8,73.3,30.02,East,89,26.5,26.5,78,0.00,CLR,,0.00,WeatherDisplay:10.37,2013-09-16 15:42:00,
2013-09-16 11:47:00,76.2,71.0,30.03,ESE,116,20.7,20.7,84,0.03,RA,,0.03,WeatherDisplay:10.37,2013-09-16 15:47:00,
2013-09-16 11:52:00,73.7,70.6,30.03,ESE,113,11.5,11.5,90,0.08,RA,,0.08,WeatherDisplay:10.37,2013-09-16 15:52:00,
2013-09-16 11:57:00,73.0,69.9,30.02,SSE,148,10.4,10.4,90,0.10,RA,,0.10,WeatherDisplay:10.37,2013-09-16 15:57:00,
2013-09-16 12:02:00,72.7,70.2,30.02,SE,127,6.9,6.9,92,0.11,RA,,0.11,WeatherDisplay:10.37,2013-09-16 16:02:00,
2013-09-16 12:07:00,73.0,71.2,30.02,NNE,30,4.6,4.6,94,0.12,RA,,0.12,WeatherDisplay:10.37,2013-09-16 16:07:00,
2013-09-16 12:12:00,73.1,71.3,30.02,NE,34,1.0,1.0,94,0.12,RA,,0.12,WeatherDisplay:10.37,2013-09-16 16:12:00,
2013-09-16 12:17:00,73.2,71.7,30.02,NE,34,3.5,3.5,95,0.12,,,0.12,WeatherDisplay:10.37,2013-09-16 16:17:00,
2013-09-16 12:22:00,73.4,71.9,30.02,North,11,3.5,3.5,95,0.12,CLR,,0.12,WeatherDisplay:10.37,2013-09-16 16:22:00,
2013-09-16 12:27:00,73.4,71.9,30.02,NNW,344,5.8,5.8,95,0.13,RA,,0.13,WeatherDisplay:10.37,2013-09-16 16:27:00,
2013-09-16 12:32:00,73.4,71.9,30.01,NNW,344,3.5,3.5,95,0.13,RA,,0.13,WeatherDisplay:10.37,2013-09-16 16:32:00,
2013-09-16 12:37:00,73.4,71.9,30.01,NNW,331,3.0,3.0,95,0.13,CLR,,0.13,WeatherDisplay:10.37,2013-09-16 16:37:00,
2013-09-16 12:42:00,73.5,72.0,30.01,WSW,254,3.5,3.5,95,0.13,CLR,,0.13,WeatherDisplay:10.37,2013-09-16 16:42:00,
2013-09-16 12:47:00,73.6,72.1,30.01,SW,221,2.0,2.0,95,0.11,RA,,0.14,WeatherDisplay:10.37,2013-09-16 16:47:00,
2013-09-16 12:52:00,73.7,72.2,30.01,WNW,298,3.0,3.0,95,0.16,RA,,0.29,WeatherDisplay:10.37,2013-09-16 16:52:00,
2013-09-16 12:57:00,73.8,72.6,30.01,NNE,14,3.5,3.5,96,0.23,RA,,0.33,WeatherDisplay:10.37,2013-09-16 16:57:00,
2013-09-16 13:02:00,73.9,72.7,30.02,NE,51,5.0,5.0,96,0.41,RA,,0.55,WeatherDisplay:10.37,2013-09-16 17:02:00,
2013-09-16 13:07:00,74.0,72.8,30.01,NNW,343,3.5,3.5,96,0.55,RA,,0.68,WeatherDisplay:10.37,2013-09-16 17:07:00,
2013-09-16 13:12:00,74.2,73.3,30.01,NNW,344,3.5,3.5,97,0.59,RA,,0.72,WeatherDisplay:10.37,2013-09-16 17:12:00,
2013-09-16 13:17:00,74.3,73.4,30.01,NNW,345,2.3,2.3,97,0.61,RA,,0.73,WeatherDisplay:10.37,2013-09-16 17:17:00,
2013-09-16 13:22:00,74.4,73.5,30.01,ENE,61,3.5,3.5,97,0.61,RA,,0.73,WeatherDisplay:10.37,2013-09-16 17:22:00,
2013-09-16 13:27:00,74.4,73.5,30.01,NE,52,3.5,3.5,97,0.60,,,0.73,WeatherDisplay:10.37,2013-09-16 17:27:00,
2013-09-16 13:32:00,74.4,73.5,30.02,NNE,31,5.0,5.0,97,0.61,RA,,0.74,WeatherDisplay:10.37,2013-09-16 17:32:00,
2013-09-16 13:37:00,74.3,73.1,30.01,NNE,22,3.5,0.0,96,0.61,RA,,0.74,WeatherDisplay:10.37,2013-09-16 17:37:00,
2013-09-16 13:42:00,74.2,73.0,30.01,NNE,22,2.3,2.3,96,0.61,,,0.74,WeatherDisplay:10.37,2013-09-16 17:42:00,
2013-09-16 13:47:00,74.3,73.4,30.01,ENE,70,3.5,3.5,97,0.60,CLR,,0.74,WeatherDisplay:10.37,2013-09-16 17:47:00,
2013-09-16 13:52:00,74.4,73.5,30.00,ENE,70,0.0,0.0,97,0.51,RA,,0.75,WeatherDisplay:10.37,2013-09-16 17:52:00,
2013-09-16 13:57:00,74.7,73.8,30.00,ENE,67,3.5,3.5,97,0.43,RA,,0.76,WeatherDisplay:10.37,2013-09-16 17:57:00,
2013-09-16 14:02:00,74.9,74.0,30.00,East,80,0.0,0.0,97,0.24,RA,,0.77,WeatherDisplay:10.37,2013-09-16 18:02:00,
2013-09-16 14:07:00,75.0,74.1,29.99,East,80,0.0,0.0,97,0.10,RA,,0.77,WeatherDisplay:10.37,2013-09-16 18:07:00,
2013-09-16 14:12:00,75.1,74.2,29.99,East,80,0.0,0.2,97,0.07,RA,,0.78,WeatherDisplay:10.37,2013-09-16 18:12:00,
2013-09-16 14:17:00,75.3,74.4,29.99,East,80,0.0,0.0,97,0.05,RA,,0.78,WeatherDisplay:10.37,2013-09-16 18:17:00,
2013-09-16 14:22:00,75.4,74.5,29.98,East,80,0.0,0.0,97,0.06,RA,,0.79,WeatherDisplay:10.37,2013-09-16 18:22:00,
2013-09-16 14:27:00,75.5,74.6,29.98,East,79,1.2,1.2,97,0.07,RA,,0.80,WeatherDisplay:10.37,2013-09-16 18:27:00,
2013-09-16 14:32:00,75.6,74.7,29.98,NNE,31,3.5,3.5,97,0.06,RA,,0.80,WeatherDisplay:10.37,2013-09-16 18:32:00,
2013-09-16 14:37:00,75.6,74.7,29.98,NNE,19,2.3,2.3,97,0.07,RA,,0.81,WeatherDisplay:10.37,2013-09-16 18:37:00,
2013-09-16 14:42:00,75.6,74.7,29.98,NNW,335,2.3,2.3,97,0.07,RA,,0.82,WeatherDisplay:10.37,2013-09-16 18:42:00,
2013-09-16 14:47:00,75.6,74.7,29.98,NNW,348,3.0,3.0,97,0.08,RA,,0.82,WeatherDisplay:10.37,2013-09-16 18:47:00,
2013-09-16 14:52:00,75.6,74.7,29.98,North,350,4.6,4.6,97,0.08,RA,,0.83,WeatherDisplay:10.37,2013-09-16 18:52:00,
2013-09-16 14:57:00,75.6,74.7,29.99,NNE,17,4.6,4.6,97,0.07,RA,,0.83,WeatherDisplay:10.37,2013-09-16 18:57:00,
2013-09-16 15:02:00,75.6,74.7,29.98,North,355,5.8,5.8,97,0.07,,,0.83,WeatherDisplay:10.37,2013-09-16 19:02:00,
2013-09-16 15:07:00,75.6,74.7,29.98,NE,34,5.8,5.8,97,0.06,CLR,,0.83,WeatherDisplay:10.37,2013-09-16 19:07:00,
2013-09-16 15:12:00,75.3,74.4,29.98,NNE,16,6.9,6.9,97,0.05,CLR,,0.83,WeatherDisplay:10.37,2013-09-16 19:12:00,
2013-09-16 15:17:00,75.4,74.5,29.98,NNE,12,6.0,6.0,97,0.05,CLR,,0.83,WeatherDisplay:10.37,2013-09-16 19:17:00,
2013-09-16 15:22:00,75.5,74.6,29.98,North,349,5.8,5.8,97,0.04,CLR,,0.83,WeatherDisplay:10.37,2013-09-16 19:22:00,
2013-09-16 15:27:00,75.6,74.7,29.97,North,355,4.0,4.0,97,0.04,RA,,0.84,WeatherDisplay:10.37,2013-09-16 19:27:00,
2013-09-16 15:32:00,75.8,74.9,29.97,NNE,12,4.6,4.6,97,0.04,RA,,0.84,WeatherDisplay:10.37,2013-09-16 19:32:00,
2013-09-16 15:37:00,76.0,75.1,29.97,NNW,341,3.5,3.5,97,0.03,,,0.84,WeatherDisplay:10.37,2013-09-16 19:37:00,
2013-09-16 15:42:00,76.1,75.2,29.97,NNW,342,4.6,4.6,97,0.03,CLR,,0.84,WeatherDisplay:10.37,2013-09-16 19:42:00,
2013-09-16 15:47:00,76.0,75.1,29.97,NNE,25,4.6,4.6,97,0.02,CLR,,0.84,WeatherDisplay:10.37,2013-09-16 19:47:00,
2013-09-16 15:52:00,76.1,75.2,29.97,NE,51,4.6,4.6,97,0.01,CLR,,0.84,WeatherDisplay:10.37,2013-09-16 19:52:00,
2013-09-16 15:57:00,76.2,75.3,29.97,North,355,5.8,5.8,97,0.01,CLR,,0.84,WeatherDisplay:10.37,2013-09-16 19:57:00,
2013-09-16 16:02:00,76.2,75.3,29.97,NNE,21,7.0,7.0,97,0.01,CLR,,0.84,WeatherDisplay:10.37,2013-09-16 20:02:00,
2013-09-16 16:07:00,76.0,74.8,29.97,NE,37,6.9,6.9,96,0.01,CLR,,0.84,WeatherDisplay:10.37,2013-09-16 20:07:00,
2013-09-16 16:12:00,76.0,74.8,29.97,NE,44,3.5,3.5,96,0.01,CLR,,0.84,WeatherDisplay:10.37,2013-09-16 20:12:00,
2013-09-16 16:17:00,76.1,74.9,29.96,NE,42,5.0,5.0,96,0.01,CLR,,0.84,WeatherDisplay:10.37,2013-09-16 20:17:00,
2013-09-16 16:22:00,76.2,75.0,29.96,North,5,6.9,6.9,96,0.01,CLR,,0.84,WeatherDisplay:10.37,2013-09-16 20:22:00,
2013-09-16 16:27:00,76.3,75.1,29.96,NNE,28,8.1,8.1,96,0.00,CLR,,0.84,WeatherDisplay:10.37,2013-09-16 20:27:00,
2013-09-16 16:32:00,76.3,75.1,29.96,NNE,30,9.0,9.0,96,0.00,CLR,,0.84,WeatherDisplay:10.37,2013-09-16 20:32:00,
2013-09-16 16:37:00,76.4,75.2,29.96,NE,42,8.1,8.1,96,0.00,CLR,,0.84,WeatherDisplay:10.37,2013-09-16 20:37:00,
2013-09-16 16:42:00,76.4,75.2,29.96,North,11,11.5,11.5,96,0.00,CLR,,0.84,WeatherDisplay:10.37,2013-09-16 20:42:00,
2013-09-16 16:47:00,76.5,75.3,29.96,NNE,25,5.8,5.8,96,0.00,CLR,,0.84,WeatherDisplay:10.37,2013-09-16 20:47:00,
2013-09-16 16:52:00,76.6,75.4,29.96,NNE,27,4.6,4.6,96,0.00,CLR,,0.84,WeatherDisplay:10.37,2013-09-16 20:52:00,
2013-09-16 16:57:00,76.7,75.5,29.96,NE,40,8.1,8.1,96,0.00,CLR,,0.84,WeatherDisplay:10.37,2013-09-16 20:57:00,
2013-09-16 17:02:00,76.8,75.3,29.96,ENE,57,11.5,11.5,95,0.00,CLR,,0.84,WeatherDisplay:10.37,2013-09-16 21:02:00,
2013-09-16 17:07:00,76.9,75.4,29.95,NNE,25,12.7,12.7,95,0.00,CLR,,0.84,WeatherDisplay:10.37,2013-09-16 21:07:00,
2013-09-16 17:12:00,77.0,75.5,29.95,NNE,31,11.5,11.5,95,0.00,CLR,,0.84,WeatherDisplay:10.37,2013-09-16 21:12:00,
2013-09-16 17:17:00,77.1,75.2,29.95,ENE,59,11.0,11.0,94,0.00,CLR,,0.84,WeatherDisplay:10.37,2013-09-16 21:17:00,
2013-09-16 17:22:00,77.2,75.3,29.94,NNE,30,11.5,11.5,94,0.00,CLR,,0.84,WeatherDisplay:10.37,2013-09-16 21:22:00,
2013-09-16 17:27:00,77.3,75.4,29.94,ENE,67,10.4,10.4,94,0.00,CLR,,0.84,WeatherDisplay:10.37,2013-09-16 21:27:00,
2013-09-16 17:32:00,77.3,75.1,29.94,NNE,24,11.5,11.5,93,0.00,CLR,,0.84,WeatherDisplay:10.37,2013-09-16 21:32:00,
2013-09-16 17:37:00,77.3,75.1,29.94,NNE,17,6.9,6.9,93,0.00,CLR,,0.84,WeatherDisplay:10.37,2013-09-16 21:37:00,
2013-09-16 17:42:00,77.3,74.8,29.94,NE,38,11.5,11.5,92,0.00,CLR,,0.84,WeatherDisplay:10.37,2013-09-16 21:42:00,
2013-09-16 17:47:00,77.3,74.8,29.94,NE,55,10.4,10.4,92,0.00,CLR,,0.84,WeatherDisplay:10.37,2013-09-16 21:47:00,
2013-09-16 17:52:00,77.3,74.8,29.94,NNE,26,5.8,5.8,92,0.00,CLR,,0.84,WeatherDisplay:10.37,2013-09-16 21:52:00,
2013-09-16 17:57:00,77.4,74.9,29.94,NE,38,11.5,11.5,92,0.00,CLR,,0.84,WeatherDisplay:10.37,2013-09-16 21:57:00,
2013-09-16 18:02:00,77.4,74.9,29.94,ENE,69,9.2,9.2,92,0.00,CLR,,0.84,WeatherDisplay:10.37,2013-09-16 22:02:00,
2013-09-16 18:07:00,77.4,75.2,29.94,NE,52,5.8,5.8,93,0.00,CLR,,0.84,WeatherDisplay:10.37,2013-09-16 22:07:00,
2013-09-16 18:12:00,77.5,75.3,29.95,ENE,72,6.9,6.9,93,0.00,CLR,,0.84,WeatherDisplay:10.37,2013-09-16 22:12:00,
2013-09-16 18:17:00,77.5,75.3,29.95,ENE,78,5.0,5.0,93,0.00,CLR,,0.84,WeatherDisplay:10.37,2013-09-16 22:17:00,
2013-09-16 18:22:00,77.6,75.4,29.95,East,81,6.9,6.9,93,0.00,CLR,,0.84,WeatherDisplay:10.37,2013-09-16 22:22:00,
2013-09-16 18:27:00,77.6,75.1,29.95,ENE,61,8.1,8.1,92,0.00,CLR,,0.84,WeatherDisplay:10.37,2013-09-16 22:27:00,
2013-09-16 18:32:00,77.6,75.1,29.95,ENE,78,9.0,9.0,92,0.00,CLR,,0.84,WeatherDisplay:10.37,2013-09-16 22:32:00,
2013-09-16 18:37:00,77.5,75.0,29.95,ENE,66,6.9,6.9,92,0.00,CLR,,0.84,WeatherDisplay:10.37,2013-09-16 22:37:00,
2013-09-16 18:42:00,77.5,75.0,29.94,NE,55,10.4,10.4,92,0.00,CLR,,0.84,WeatherDisplay:10.37,2013-09-16 22:42:00,
2013-09-16 18:47:00,77.5,75.0,29.94,NE,42,11.5,11.5,92,0.00,CLR,,0.84,WeatherDisplay:10.37,2013-09-16 22:47:00,
2013-09-16 18:52:00,77.5,75.0,29.94,ENE,69,6.9,6.9,92,0.00,CLR,,0.84,WeatherDisplay:10.37,2013-09-16 22:52:00,
2013-09-16 18:57:00,77.6,74.8,29.93,ENE,67,15.0,15.0,91,0.00,CLR,,0.84,WeatherDisplay:10.37,2013-09-16 22:57:00,
2013-09-16 19:02:00,77.7,75.2,29.93,ENE,75,9.2,9.2,92,0.00,CLR,,0.84,WeatherDisplay:10.37,2013-09-16 23:02:00,
2013-09-16 19:07:00,77.7,74.9,29.94,ENE,57,10.4,10.4,91,0.00,CLR,,0.84,WeatherDisplay:10.37,2013-09-16 23:07:00,
2013-09-16 19:12:00,77.7,74.9,29.94,ENE,71,11.5,11.5,91,0.00,CLR,,0.84,WeatherDisplay:10.37,2013-09-16 23:12:00,
2013-09-16 19:17:00,77.8,74.6,29.94,ENE,60,9.2,9.2,90,0.00,CLR,,0.84,WeatherDisplay:10.37,2013-09-16 23:17:00,
2013-09-16 19:22:00,77.9,74.7,29.94,ENE,69,11.5,11.5,90,0.00,CLR,,0.84,WeatherDisplay:10.37,2013-09-16 23:22:00,
2013-09-16 19:27:00,77.8,74.6,29.94,ENE,74,11.0,11.0,90,0.00,CLR,,0.84,WeatherDisplay:10.37,2013-09-16 23:27:00,
2013-09-16 19:32:00,77.9,74.4,29.94,ENE,66,13.0,13.0,89,0.00,CLR,,0.84,WeatherDisplay:10.37,2013-09-16 23:32:00,
2013-09-16 19:37:00,77.9,74.4,29.95,ENE,74,11.5,11.5,89,0.00,CLR,,0.84,WeatherDisplay:10.37,2013-09-16 23:37:00,
2013-09-16 19:42:00,77.9,74.4,29.95,ENE,61,11.5,11.5,89,0.00,CLR,,0.84,WeatherDisplay:10.37,2013-09-16 23:42:00,
2013-09-16 19:47:00,78.0,74.5,29.95,ENE,69,10.4,10.4,89,0.00,CLR,,0.84,WeatherDisplay:10.37,2013-09-16 23:47:00,
2013-09-16 19:52:00,77.9,74.4,29.95,ENE,60,11.5,11.5,89,0.00,CLR,,0.84,WeatherDisplay:10.37,2013-09-16 23:52:00,
2013-09-16 19:57:00,78.0,74.5,29.95,ENE,63,11.5,11.5,89,0.00,CLR,,0.84,WeatherDisplay:10.37,2013-09-16 23:57:00,
2013-09-16 20:02:00,78.0,74.5,29.95,ENE,61,9.2,9.2,89,0.00,CLR,,0.84,WeatherDisplay:10.37,2013-09-17 00:02:00,
2013-09-16 20:07:00,78.1,74.6,29.95,East,80,10.4,10.4,89,0.00,CLR,,0.84,WeatherDisplay:10.37,2013-09-17 00:07:00,
2013-09-16 20:12:00,78.2,74.7,29.95,ENE,59,10.4,10.4,89,0.00,CLR,,0.84,WeatherDisplay:10.37,2013-09-17 00:12:00,
2013-09-16 20:17:00,78.2,74.7,29.95,ENE,72,6.9,6.9,89,0.00,CLR,,0.84,WeatherDisplay:10.37,2013-09-17 00:17:00,
2013-09-16 20:22:00,78.2,74.7,29.95,ENE,59,8.0,8.0,89,0.00,CLR,,0.84,WeatherDisplay:10.37,2013-09-17 00:22:00,
2013-09-16 20:27:00,78.2,74.7,29.95,ENE,66,5.8,5.8,89,0.00,CLR,,0.84,WeatherDisplay:10.37,2013-09-17 00:27:00,
2013-09-16 20:32:00,78.2,75.0,29.95,ENE,69,6.9,6.9,90,0.00,CLR,,0.84,WeatherDisplay:10.37,2013-09-17 00:32:00,
2013-09-16 20:37:00,78.2,75.0,29.95,ENE,65,6.9,6.9,90,0.00,CLR,,0.84,WeatherDisplay:10.37,2013-09-17 00:37:00,
2013-09-16 20:42:00,78.3,75.1,29.95,NE,53,10.0,10.0,90,0.00,CLR,,0.84,WeatherDisplay:10.37,2013-09-17 00:42:00,
2013-09-16 20:47:00,78.3,75.1,29.95,NE,56,7.0,7.0,90,0.00,CLR,,0.84,WeatherDisplay:10.37,2013-09-17 00:47:00,
2013-09-16 20:52:00,78.3,75.1,29.96,ENE,74,3.5,3.5,90,0.00,CLR,,0.84,WeatherDisplay:10.37,2013-09-17 00:52:00,
2013-09-16 20:57:00,78.3,75.1,29.96,East,86,4.6,4.6,90,0.00,CLR,,0.84,WeatherDisplay:10.37,2013-09-17 00:57:00,
2013-09-16 21:02:00,78.3,75.1,29.96,ENE,72,10.4,10.4,90,0.00,CLR,,0.84,WeatherDisplay:10.37,2013-09-17 01:02:00,
2013-09-16 21:07:00,78.3,74.8,29.97,East,82,6.9,6.9,89,0.00,CLR,,0.84,WeatherDisplay:10.37,2013-09-17 01:07:00,
2013-09-16 21:12:00,78.4,74.9,29.97,East,96,5.8,5.8,89,0.00,CLR,,0.84,WeatherDisplay:10.37,2013-09-17 01:12:00,
2013-09-16 21:17:00,78.4,74.9,29.97,East,89,8.1,8.1,89,0.00,CLR,,0.84,WeatherDisplay:10.37,2013-09-17 01:17:00,
2013-09-16 21:22:00,78.5,74.6,29.97,East,80,6.9,6.9,88,0.00,CLR,,0.84,WeatherDisplay:10.37,2013-09-17 01:22:00,
2013-09-16 21:27:00,78.5,75.0,29.97,ENE,77,3.5,3.8,89,0.00,CLR,,0.84,WeatherDisplay:10.37,2013-09-17 01:27:00,
2013-09-16 21:32:00,78.4,74.9,29.97,East,85,5.8,5.8,89,0.00,CLR,,0.84,WeatherDisplay:10.37,2013-09-17 01:32:00,
2013-09-16 21:37:00,78.4,74.9,29.97,ENE,68,6.9,6.9,89,0.00,CLR,,0.84,WeatherDisplay:10.37,2013-09-17 01:37:00,
2013-09-16 21:42:00,78.4,75.2,29.97,ESE,105,10.4,10.4,90,0.00,CLR,,0.84,WeatherDisplay:10.37,2013-09-17 01:42:00,
2013-09-16 21:47:00,78.4,74.9,29.97,ENE,78,7.0,7.0,89,0.00,CLR,,0.84,WeatherDisplay:10.37,2013-09-17 01:47:00,
2013-09-16 21:52:00,78.5,75.0,29.97,ESE,107,8.0,8.0,89,0.00,CLR,,0.84,WeatherDisplay:10.37,2013-09-17 01:52:00,
2013-09-16 21:57:00,78.4,74.9,29.97,East,87,9.2,9.2,89,0.00,CLR,,0.84,WeatherDisplay:10.37,2013-09-17 01:57:00,
2013-09-16 22:02:00,78.4,74.9,29.97,ENE,73,9.2,9.2,89,0.00,CLR,,0.84,WeatherDisplay:10.37,2013-09-17 02:02:00,
2013-09-16 22:07:00,78.4,74.9,29.97,ENE,78,4.6,4.6,89,0.00,CLR,,0.84,WeatherDisplay:10.37,2013-09-17 02:07:00,
2013-09-16 22:12:00,78.4,74.5,29.97,East,90,9.2,9.2,88,0.00,CLR,,0.84,WeatherDisplay:10.37,2013-09-17 02:12:00,
2013-09-16 22:17:00,78.4,74.5,29.97,ENE,63,6.9,6.9,88,0.00,CLR,,0.84,WeatherDisplay:10.37,2013-09-17 02:17:00,
2013-09-16 22:22:00,78.4,74.5,29.96,East,93,6.0,6.0,88,0.00,CLR,,0.84,WeatherDisplay:10.37,2013-09-17 02:22:00,
2013-09-16 22:27:00,78.5,74.6,29.97,East,86,6.9,6.9,88,0.00,CLR,,0.84,WeatherDisplay:10.37,2013-09-17 02:27:00,
2013-09-16 22:32:00,78.7,74.8,29.97,NE,54,6.9,6.9,88,0.00,CLR,,0.84,WeatherDisplay:10.37,2013-09-17 02:32:00,
2013-09-16 22:37:00,78.7,74.8,29.97,East,88,6.9,7.0,88,0.00,CLR,,0.84,WeatherDisplay:10.37,2013-09-17 02:37:00,
2013-09-16 22:42:00,78.8,74.6,29.97,ENE,76,10.4,10.4,87,0.00,CLR,,0.84,WeatherDisplay:10.37,2013-09-17 02:42:00,
2013-09-16 22:47:00,78.9,74.7,29.97,ENE,72,8.1,8.1,87,0.00,CLR,,0.84,WeatherDisplay:10.37,2013-09-17 02:47:00,
2013-09-16 22:52:00,79.0,75.1,29.97,East,82,6.0,6.1,88,0.00,CLR,,0.84,WeatherDisplay:10.37,2013-09-17 02:52:00,
2013-09-16 22:57:00,79.0,75.1,29.97,East,85,5.0,5.0,88,0.00,CLR,,0.84,WeatherDisplay:10.37,2013-09-17 02:57:00,
2013-09-16 23:02:00,78.9,75.4,29.97,East,91,10.4,10.4,89,0.00,CLR,,0.84,WeatherDisplay:10.37,2013-09-17 03:02:00,
2013-09-16 23:07:00,79.0,75.5,29.97,East,80,6.9,6.9,89,0.00,CLR,,0.84,WeatherDisplay:10.37,2013-09-17 03:07:00,
2013-09-16 23:12:00,79.0,75.1,29.98,East,90,9.2,9.2,88,0.00,CLR,,0.84,WeatherDisplay:10.37,2013-09-17 03:12:00,
2013-09-16 23:17:00,79.1,75.2,29.97,East,84,6.9,6.9,88,0.00,CLR,,0.84,WeatherDisplay:10.37,2013-09-17 03:17:00,
2013-09-16 23:22:00,79.1,75.2,29.97,East,90,6.0,6.0,88,0.00,CLR,,0.84,WeatherDisplay:10.37,2013-09-17 03:22:00,
2013-09-16 23:27:00,79.1,74.9,29.97,East,98,10.4,10.4,87,0.00,CLR,,0.84,WeatherDisplay:10.37,2013-09-17 03:27:00,
2013-09-16 23:32:00,79.1,74.9,29.97,ESE,102,9.2,9.2,87,0.00,CLR,,0.84,WeatherDisplay:10.37,2013-09-17 03:32:00,
2013-09-16 23:37:00,79.2,75.0,29.97,East,88,6.0,6.0,87,0.00,CLR,,0.84,WeatherDisplay:10.37,2013-09-17 03:37:00,
2013-09-16 23:42:00,79.2,75.3,29.97,ESE,102,6.0,6.0,88,0.00,CLR,,0.84,WeatherDisplay:10.37,2013-09-17 03:42:00,
2013-09-16 23:47:00,79.2,75.3,29.98,ENE,71,5.8,5.8,88,0.00,CLR,,0.84,WeatherDisplay:10.37,2013-09-17 03:47:00,
2013-09-16 23:52:00,79.2,75.3,29.97,East,100,9.2,9.2,88,0.00,CLR,,0.84,WeatherDisplay:10.37,2013-09-17 03:52:00,
2013-09-16 23:57:00,79.3,75.1,29.97,East,98,5.8,5.8,87,0.00,CLR,,0.84,WeatherDisplay:10.37,2013-09-17 03:57:00,